This is the latest recevied weather packets stored in our database for station/object KK7ISX. If no packets are shown the sender has not sent any weather packets the latest 10 day(s).
| Time | Temp. | Humidity | Pressure | Rain* | Wind** | Luminosity | Snow |
|---|---|---|---|---|---|---|---|
| 1777884663 | 11.67° C | 69% | 1008 hPa | 0 mm | - | 0 W/m² | - |
| 1777884360 | 11.67° C | 68% | 1007.8 hPa | 0 mm | - | 0 W/m² | - |
| 1777884056 | 12.22° C | 67% | 1007.8 hPa | 0 mm | - | 0 W/m² | - |
| 1777883755 | 12.22° C | 64% | 1007.8 hPa | 0 mm | - | 0 W/m² | - |
| 1777883451 | 12.78° C | 63% | 1007.9 hPa | 0 mm | - | 0 W/m² | - |
| 1777883147 | 12.78° C | 66% | 1008 hPa | 0 mm | - | 0 W/m² | - |
| 1777882843 | 13.33° C | 62% | 1008 hPa | 0 mm | - | 0 W/m² | - |
| 1777882541 | 13.33° C | 62% | 1007.7 hPa | 0 mm | - | 0 W/m² | - |
| 1777882236 | 12.78° C | 63% | 1008 hPa | 0 mm | - | 0 W/m² | - |
| 1777881933 | 12.78° C | 62% | 1007.8 hPa | 0 mm | - | 0 W/m² | - |
| 1777881630 | 13.33° C | 62% | 1007.9 hPa | 0 mm | - | 0 W/m² | - |
| 1777881326 | 13.89° C | 60% | 1007.9 hPa | 0 mm | - | 0 W/m² | - |
| 1777881024 | 13.89° C | 59% | 1007.9 hPa | 0 mm | - | 0 W/m² | - |
| 1777880722 | 13.89° C | 59% | 1007.9 hPa | 0 mm | - | 0 W/m² | - |
| 1777880420 | 13.89° C | 59% | 1008 hPa | 0 mm | - | 0 W/m² | - |
| 1777880118 | 13.89° C | 60% | 1008 hPa | 0 mm | - | 0 W/m² | - |
| 1777879816 | 14.44° C | 59% | 1007.9 hPa | 0 mm | - | 0 W/m² | - |
| 1777879514 | 15° C | 57% | 1007.8 hPa | 0 mm | - | 0 W/m² | - |
| 1777879210 | 15° C | 57% | 1007.9 hPa | 0 mm | - | 0 W/m² | - |
| 1777878907 | 15° C | 56% | 1007.7 hPa | 0 mm | - | 0 W/m² | - |
| 1777878604 | 15.56° C | 55% | 1007.7 hPa | 0 mm | - | 0 W/m² | - |
| 1777878301 | 15.56° C | 54% | 1007.8 hPa | 0 mm | - | 0 W/m² | - |
| 1777877996 | 15.56° C | 54% | 1007.7 hPa | 0 mm | - | 0 W/m² | - |
| 1777877693 | 15.56° C | 53% | 1007.7 hPa | 0 mm | - | 0 W/m² | - |
| 1777877391 | 16.11° C | 53% | 1007.7 hPa | 0 mm | - | 0 W/m² | - |
* Rain latest hour (hover to see other rain measurements)
** Current wind speed in m/s (hover to see current wind gust speed)